Погода в Киете

Папуа-Новая Гвинея     6°19′08″S   155°43′51″E
темп.,
°C
ветер,
м/с
пор.,
м/с
влажн.,
%
обл.,
%
осадки,
мм/ч
давл.,
гПа
погр.,
м
1 июля, пт
пт101:00+27юв567948 2.3 1010672
04:00+26юв458135 5.3 1009634
07:00+27вюв458247 3.2 1011576
10:00+27в347926 7.8 1011491
13:00+27в117722 4.8 1009171
16:00+27юв127244 5.6 1008340
19:00+27юв347577 0.6 1010352
22:00+27юв347796 3.0 1011419
2 июля, сб
сб201:00+27юв337788 0.5 1009404
04:00+26юв348088 1.6 1009580
07:00+27юв458194 1.1 1010575
10:00+28юв45724 2.1 1010840
13:00+28вюв55733 0.9 1008782
16:00+28вюв557239 2.3 1007878
19:00+27юв447614 0.8 1009760
22:00+27юв347510 1.6 1009719
3 июля, вс
вс301:00+27юв3377100 0.8 1008600
04:00+27юв347834 1.9 1008608
07:00+27юв44795 2.9 1010538
10:00+28юв45734 4.6 1009653
13:00+28вюв55723 1.2 1007691
16:00+28юв55745 3.1 1006654
19:00+28юв557412 0.7 1008779
22:00+27юв55766 2.1 1008747
4 июля, пн
пн401:00+27юв457850 3.6 1007563
04:00+26юв568046 7.8 1007546
07:00+27юв468010 2.4 1009603
10:00+27юв567810 4.0 1009708
13:00+28юв457535 0.9 1007730
16:00+28вюв45775 2.7 1006602
19:00+27юв457940 1.6 1008599
22:00+27вюв348084 4.3 1009490
5 июля, вт
вт501:00+26юв228197 1.6 1008320
04:00+26юв238127 4.1 1008323
07:00+26юв228132 2.4 1009289
10:00+27вюв227711 4.7 1009281
13:00+27вюв227643 2.1 1007281
16:00+27вюв2278100 3.8 1007237
19:00+27юв2278100 2.7 1009110
22:00+27ю1173100 4.1 1010249